, OR

(GMT )
Tillamook

Weather History for KTMK - April, 2013

Change the Weather History Date:

Sunday, April 7, 2013

  Actual Average Record
Temperature  
Mean Temperature 48 °F -  
Max Temperature 53 °F - - ()
Min Temperature 42 °F - - ()
Degree Days  
Heating Degree Days 18    
Moisture  
Dew Point 45 °F    
Average Humidity 90    
Maximum Humidity 100    
Minimum Humidity 82    
Precipitation  
Precipitation 0.87 in - - ()
Sea Level Pressure  
Sea Level Pressure 29.79 in    
Wind  
Wind Speed 11 mph (SW)    
Max Wind Speed 25 mph    
Max Gust Speed 38 mph    
Visibility 6 miles    
Events Rain    
Averages and records for this station are not official NWS values.
T = Trace of Precipitation, MM = Missing Value Source: NWS Daily Summary

Daily Weather History Graph

Daily Weather History Graph

Search for Another Location

Airport or City:

Trip Planner

Search our weather history database for the weather conditions in past years. The results will help you decide how hot, cold, wet, or windy it might be!

Date:

Astronomy

Apr. 07, 2013 Rise Set
Actual Time 7:43 AM MDT 8:51 PM MDT
Civil Twilight 7:13 AM MDT 9:21 PM MDT
Nautical Twilight 6:37 AM MDT 9:58 PM MDT
Astronomical Twilight 5:58 AM MDT 10:36 PM MDT
Moon 6:11 AM MDT (4/7) 6:24 PM MDT (4/7)
Length of Visible Light 14h 08m
Length of Day
13h 07m
Waning Crescent, 8% of the Moon is Illuminated
Apr 7
Waning Crescent
Apr 10
New
Apr 18
First Quarter
Apr 25
Full
May 2
Last Quarter

Hourly Weather History & Observations

Time (MDT) Temp. Windchill Dew Point Humidity Pressure Visibility Wind Dir Wind Speed Gust Speed Precip Events Conditions
12:15 AM 48.2 °F - 44.6 °F 87% 29.68 in 4.0 mi NE 4.6 mph - 0.02 in Rain Rain
12:35 AM 48.2 °F - 46.4 °F 93% 29.66 in 5.0 mi SSE 3.5 mph - 0.04 in Rain Light Rain
12:55 AM 50.0 °F - 46.4 °F 87% 29.64 in 4.0 mi South 4.6 mph - 0.05 in Rain Light Rain
1:15 AM 50.0 °F - 48.2 °F 94% 29.62 in 4.0 mi SSE 11.5 mph - 0.01 in Rain Light Rain
1:35 AM 50.0 °F - 48.2 °F 94% 29.61 in 4.0 mi SSE 8.1 mph - 0.03 in   Heavy Drizzle
1:55 AM 51.8 °F - 48.2 °F 88% 29.60 in 3.0 mi SSE 9.2 mph - 0.05 in Rain Rain
2:15 AM 51.8 °F - 50.0 °F 94% 29.58 in 4.0 mi SSE 12.7 mph 18.4 mph 0.05 in Rain Light Rain
2:35 AM 53.6 °F - 50.0 °F 88% 29.57 in 5.0 mi South 19.6 mph 28.8 mph 0.05 in Rain Rain
2:55 AM 53.6 °F - 50.0 °F 88% 29.57 in 5.0 mi South 24.2 mph 36.8 mph 0.05 in Rain Light Rain
3:15 AM 53.6 °F - 50.0 °F 88% 29.57 in 4.0 mi South 20.7 mph 38.0 mph 0.01 in Rain Light Rain
3:35 AM 51.8 °F - 50.0 °F 94% 29.57 in 3.0 mi SSW 17.3 mph 32.2 mph 0.01 in Rain Light Rain
3:55 AM 51.8 °F - 50.0 °F 94% 29.55 in 3.0 mi SSW 25.3 mph 36.8 mph 0.01 in Rain Light Rain
4:15 AM 51.8 °F - 50.0 °F 94% 29.54 in 4.0 mi SSW 21.9 mph 31.1 mph N/A Rain Light Rain
4:35 AM 51.8 °F - 50.0 °F 94% 29.53 in 5.0 mi South 25.3 mph 36.8 mph 0.01 in Rain Light Rain
4:55 AM 51.8 °F - 48.2 °F 88% 29.55 in 4.0 mi SSW 25.3 mph 35.7 mph 0.01 in Rain Light Rain
5:15 AM 51.8 °F - 48.2 °F 88% 29.54 in 4.0 mi South 23.0 mph 31.1 mph N/A Rain Light Rain
5:35 AM 51.8 °F - 48.2 °F 88% 29.55 in 3.0 mi SSW 19.6 mph 32.2 mph N/A Rain Light Rain
5:55 AM 50.0 °F - 48.2 °F 94% 29.60 in 7.0 mi SW 17.3 mph 28.8 mph N/A   Overcast
6:15 AM 50.0 °F - 46.4 °F 87% 29.66 in 10.0 mi West 23.0 mph 34.5 mph N/A   Overcast
6:35 AM 48.2 °F - 44.6 °F 87% 29.70 in 10.0 mi WSW 19.6 mph 26.5 mph N/A   Overcast
6:55 AM 46.4 °F 41.1 °F 44.6 °F 93% 29.73 in 3.0 mi WSW 11.5 mph 19.6 mph N/A Rain Light Rain
7:15 AM 46.4 °F 41.1 °F 44.6 °F 93% 29.74 in 5.0 mi WSW 11.5 mph - 0.03 in Rain Light Rain
7:35 AM 46.4 °F 40.1 °F 44.6 °F 93% 29.75 in 4.0 mi SW 15.0 mph 18.4 mph 0.06 in Rain Light Rain
7:55 AM 46.4 °F 41.5 °F 44.6 °F 93% 29.76 in 5.0 mi WSW 10.4 mph - 0.09 in Rain Light Rain
8:15 AM 46.4 °F 40.7 °F 42.8 °F 87% 29.78 in 3.0 mi West 12.7 mph 17.3 mph N/A Rain Rain
8:35 AM 46.4 °F 41.1 °F 42.8 °F 87% 29.78 in 4.0 mi West 11.5 mph - 0.01 in Rain Rain
8:55 AM 46.4 °F 43.5 °F 44.6 °F 93% 29.79 in 2.5 mi West 5.8 mph - 0.02 in   Drizzle
9:15 AM 46.4 °F 42.4 °F 44.6 °F 93% 29.80 in 5.0 mi West 8.1 mph - 0.02 in Rain Light Rain
9:35 AM 46.4 °F 42.9 °F 44.6 °F 93% 29.81 in 7.0 mi West 6.9 mph - 0.04 in Rain Light Rain
9:55 AM 46.4 °F 45.2 °F 44.6 °F 93% 29.81 in 5.0 mi WSW 3.5 mph - 0.07 in Rain Light Rain
10:15 AM 46.4 °F 42.4 °F 44.6 °F 93% 29.81 in 5.0 mi WSW 8.1 mph - 0.01 in Rain Light Rain
10:35 AM 46.4 °F 42.4 °F 44.6 °F 93% 29.81 in 7.0 mi SW 8.1 mph - 0.05 in Rain Light Rain
10:55 AM 48.2 °F - 44.6 °F 87% 29.81 in 10.0 mi SW 6.9 mph - 0.07 in Rain Light Rain
11:15 AM 48.2 °F - 46.4 °F 93% 29.81 in 4.0 mi WSW 11.5 mph - 0.03 in   Overcast
11:35 AM 48.2 °F - 44.6 °F 87% 29.82 in 10.0 mi SW 11.5 mph - 0.03 in   Overcast
11:55 AM 46.4 °F 41.5 °F 42.8 °F 87% 29.83 in 5.0 mi SW 10.4 mph 18.4 mph 0.06 in Rain Light Rain
12:15 PM 48.2 °F - 44.6 °F 87% 29.84 in 7.0 mi SW 6.9 mph - 0.01 in Rain Light Rain
12:35 PM 48.2 °F - 44.6 °F 87% 29.85 in 5.0 mi WSW 12.7 mph 18.4 mph 0.02 in Rain Light Rain
12:55 PM 48.2 °F - 46.4 °F 93% 29.85 in 5.0 mi SW 8.1 mph - 0.03 in Rain Light Rain
1:15 PM 50.0 °F - 46.4 °F 87% 29.85 in 10.0 mi West 11.5 mph 17.3 mph N/A   Overcast
1:35 PM 48.2 °F - 44.6 °F 87% 29.86 in 7.0 mi WSW 9.2 mph - 0.01 in Rain Rain
1:55 PM 48.2 °F - 44.6 °F 87% 29.87 in 10.0 mi WSW 8.1 mph - 0.03 in   Overcast
2:15 PM 48.2 °F - 44.6 °F 87% 29.87 in 10.0 mi SW 3.5 mph - N/A Rain Rain
2:35 PM 48.2 °F - 44.6 °F 87% 29.87 in 7.0 mi SW 10.4 mph 18.4 mph 0.02 in Rain Light Rain
2:55 PM 46.4 °F 41.1 °F 42.8 °F 87% 29.88 in 5.0 mi SW 11.5 mph - 0.04 in Rain Light Rain
3:15 PM 48.2 °F - 44.6 °F 87% 29.88 in 7.0 mi SSW 6.9 mph - 0.02 in Rain Light Rain
3:35 PM 50.0 °F - 46.4 °F 87% 29.87 in 10.0 mi South 6.9 mph - 0.02 in   Overcast
3:55 PM 50.0 °F - 44.6 °F 82% 29.87 in 10.0 mi SSW 13.8 mph 20.7 mph 0.02 in   Overcast
4:15 PM 50.0 °F - 44.6 °F 82% 29.88 in 5.0 mi West 13.8 mph 21.9 mph N/A   Mostly Cloudy
4:35 PM 46.4 °F 41.5 °F 44.6 °F 93% 29.88 in 4.0 mi West 10.4 mph - 0.04 in Rain Rain
4:55 PM 48.2 °F - 46.4 °F 93% 29.88 in 7.0 mi WSW 10.4 mph - 0.05 in Rain Light Rain
5:15 PM 48.2 °F - 44.6 °F 87% 29.88 in 7.0 mi West 10.4 mph 16.1 mph N/A Rain Light Rain
5:35 PM 48.2 °F - 44.6 °F 87% 29.89 in 10.0 mi West 6.9 mph - N/A Rain Light Rain
5:55 PM 46.4 °F 42.4 °F 44.6 °F 93% 29.90 in 3.0 mi West 8.1 mph - 0.02 in Rain Light Rain
6:15 PM 48.2 °F - 44.6 °F 87% 29.90 in 10.0 mi West 8.1 mph - N/A   Overcast
6:35 PM 46.4 °F 39.0 °F 42.8 °F 87% 29.91 in 7.0 mi WNW 19.6 mph 24.2 mph N/A   Light Drizzle
6:55 PM 46.4 °F 41.9 °F 42.8 °F 87% 29.92 in 10.0 mi WNW 9.2 mph - 0.01 in Rain Light Rain
7:15 PM 44.6 °F 40.7 °F 41.0 °F 87% 29.92 in 7.0 mi West 6.9 mph - 0.01 in Rain Rain
7:35 PM 44.6 °F 40.2 °F 42.8 °F 93% 29.93 in 7.0 mi NW 8.1 mph - 0.03 in Rain Light Rain
7:55 PM 44.6 °F 40.7 °F 41.0 °F 87% 29.93 in 7.0 mi NW 6.9 mph - 0.04 in Rain Light Rain
8:15 PM 44.6 °F 39.2 °F 41.0 °F 87% 29.93 in 7.0 mi NW 10.4 mph 20.7 mph 0.03 in Rain Rain
8:35 PM 44.6 °F - 41.0 °F 87% 29.93 in 7.0 mi Calm Calm - 0.07 in Rain Light Rain
8:55 PM 44.6 °F 43.1 °F 41.0 °F 87% 29.93 in 10.0 mi ESE 3.5 mph - 0.08 in Rain Light Rain
9:15 PM 44.6 °F 42.2 °F 41.0 °F 87% 29.93 in 4.0 mi SSW 4.6 mph - 0.04 in Rain Rain
9:35 PM 44.6 °F 43.1 °F 41.0 °F 87% 29.94 in 10.0 mi SE 3.5 mph - 0.04 in   Overcast
9:55 PM 42.8 °F 40.1 °F 41.0 °F 93% 29.95 in 5.0 mi SE 4.6 mph - 0.05 in Rain Rain
10:15 PM 42.8 °F 41.1 °F 41.0 °F 93% 29.96 in 10.0 mi SE 3.5 mph - 0.01 in Rain Light Rain
10:35 PM 44.6 °F 42.2 °F 41.0 °F 87% 29.96 in 10.0 mi SSE 4.6 mph - 0.01 in Rain Light Rain
10:55 PM 42.8 °F 41.1 °F 41.0 °F 93% 29.96 in 10.0 mi South 3.5 mph - 0.01 in   Mostly Cloudy
11:15 PM 42.8 °F 41.1 °F 42.8 °F 100% 29.97 in 10.0 mi SSE 3.5 mph - N/A Rain Rain
11:35 PM 42.8 °F 40.1 °F 41.0 °F 93% 29.97 in 10.0 mi SE 4.6 mph - 0.01 in   Mostly Cloudy
11:55 PM 42.8 °F 39.3 °F 41.0 °F 93% 29.98 in 10.0 mi SE 5.8 mph - 0.01 in   Mostly Cloudy